Home > Weather > Odessa > Past weeks

Flag for USA Past Weather in Odessa, Texas, USA — Yesterday and Last 2 Weeks

Now
81 °F

Clear.


Feels Like: 81 °F
Forecast: 77 / 96 °F
Wind: 7 mph from South

Location: Odessa-Schlemeyer Field

Current Time: Jul 25, 2016 at 7:08:17 AM

Latest Report: Jul 25, 2016 at 5:53 AM


Visibility: 10 mi

Pressure: 29.87 "Hg (27.02 "Hg at 882m altitude)

Humidity: 47%

Dew Point: 59 °F

Location of OdessaLocation

Past Weather in Odessa — Graph

°F

Odessa Temperature Yesterday

Maximum temperature yesterday: 100 °F (at 4:53 PM)
Minimum temperature yesterday: 79 °F (at 6:53 AM)
Average temperature yesterday: 90 °F

High & Low Weather Summary for the Past Weeks

 TemperatureHumidityPressure
High107 °F (Jul 12, 3:53 PM)69% (Jul 15, 8:53 AM)30.10 "Hg (Jul 15, 8:53 AM)
Low72 °F (Jul 16, 6:53 AM)13% (Jul 12, 4:53 PM)29.62 "Hg (Jul 11, 6:53 PM)
Average89 °F37%29.87 "Hg
* Reported Jul 10 5:53 AM — Jul 25 5:53 AM, Odessa, Weather by CustomWeather, © 2016

Note: Actual official high and low records may vary slightly from our data, if they occured in-between our weather recording intervals... More about our weather records

Advertising

Odessa Weather History for the Previous 24 Hours

Scroll right to see more
 ConditionsComfort  
Time TempWeatherWind HumidityBarometerVisibility
5:53 AM
Mon, Jul 25
81 °FClear.7 mph47%29.87 "Hg10 mi
4:53 AM82 °FClear.7 mph46%29.86 "Hg10 mi
3:53 AM83 °FClear.7 mph43%29.86 "Hg10 mi
2:53 AM85 °FClear.10 mph40%29.87 "Hg10 mi
1:53 AM86 °FClear.13 mph37%29.86 "Hg10 mi
12:53 AM88 °FPassing clouds.12 mph35%29.86 "Hg10 mi
11:53 PM
Sun, Jul 24
89 °FPassing clouds.13 mph34%29.85 "Hg10 mi
10:53 PM90 °FClear.8 mph31%29.83 "Hg10 mi
9:53 PM92 °FClear.10 mph28%29.81 "Hg10 mi
8:53 PM95 °FSunny.13 mph24%29.78 "Hg10 mi
7:53 PM98 °FSunny.14 mph23%29.76 "Hg10 mi
6:53 PM99 °FSunny.16 mph21%29.76 "Hg10 mi
5:53 PM99 °FSunny.13 mph22%29.77 "Hg10 mi
4:53 PM100 °FSunny.12 mph23%29.78 "Hg10 mi
3:53 PM99 °FSunny.13 mph24%29.80 "Hg10 mi
2:53 PM98 °FPassing clouds.16 mph25%29.82 "Hg10 mi
1:53 PM96 °FPassing clouds.13 mph28%29.84 "Hg10 mi
12:53 PM95 °FSunny.13 mph30%29.86 "Hg10 mi
11:53 AM93 °FSunny.13 mph34%29.88 "Hg10 mi
10:53 AM89 °FSunny.16 mph42%29.88 "Hg10 mi
9:53 AM85 °FSunny.14 mph50%29.88 "Hg10 mi
8:53 AM82 °FSunny.15 mph55%29.87 "Hg10 mi
7:53 AM79 °FClear.13 mph56%29.85 "Hg10 mi
Weather by CustomWeather, © 2016

See weather overviewHow to use our weather pages